Prairie Du Chien, WI

7:25 AM CDT on June 29, 2017 (GMT -0500)
Prairie Du Chien Municipal

Weather History for KPDC - June, 2014

Change the Weather History Date:

Wednesday, June 18, 2014

  Actual Average Record
Temperature  
Mean Temperature 73 °F -  
Max Temperature 80 °F 81 °F 93 °F (1953)
Min Temperature 67 °F 59 °F 44 °F (1965)
Cooling Degree Days 8    
Growing Degree Days 23 (Base 50)    
Moisture  
Dew Point 66 °F    
Average Humidity 77    
Maximum Humidity 90    
Minimum Humidity 61    
Precipitation  
Precipitation 0.43 in - - ()
Sea Level Pressure  
Sea Level Pressure 29.89 in    
Wind  
Wind Speed 6 mph (East)    
Max Wind Speed 15 mph    
Max Gust Speed 33 mph    
Visibility 10 miles    
Events Rain    
Averages and records for this station are not official NWS values.
T = Trace of Precipitation, MM = Missing Value Source: NWS Daily Summary

Daily Weather History Graph

Daily Weather History Graph

Search for Another Location

Airport or City:

Trip Planner

Search our weather history database for the weather conditions in past years. The results will help you decide how hot, cold, wet, or windy it might be!

Date:

Astronomy

Jun. 18, 2014 Rise Set
Actual Time 5:24 AM CDT 8:46 PM CDT
Civil Twilight 4:49 AM CDT 9:21 PM CDT
Nautical Twilight 4:03 AM CDT 10:07 PM CDT
Astronomical Twilight 3:06 AM CDT 11:05 PM CDT
Moon 12:07 AM CDT (6/18) 11:57 AM CDT (6/18)
Length of Visible Light 16h 32m
Length of Day
15h 21m
Waning Gibbous, 62% of the Moon is Illuminated
Jun 18
Waning Gibbous
Jun 19
Last Quarter
Jun 27
New
Jul 5
First Quarter
Jul 12
Full

Hourly Weather History & Observations

Time (CDT) Temp. Dew Point Humidity Pressure Visibility Wind Dir Wind Speed Gust Speed Precip Events Conditions
12:15 AM 75.4 °F 70.0 °F 83% 29.83 in 10.0 mi Calm Calm - N/A   Scattered Clouds
12:35 AM 76.3 °F 70.9 °F 83% 29.82 in 10.0 mi SE 8.1 mph - N/A   Mostly Cloudy
1:15 AM 77.7 °F 71.1 °F 80% 29.84 in 10.0 mi ESE 9.2 mph 16.1 mph N/A   Overcast
1:35 AM 75.2 °F 68.4 °F 79% 29.83 in 10.0 mi ESE 9.2 mph - N/A   Mostly Cloudy
1:55 AM 74.5 °F 66.6 °F 76% 29.83 in 10.0 mi East 4.6 mph - N/A   Scattered Clouds
2:15 AM 73.8 °F 66.2 °F 77% 29.84 in 10.0 mi ESE 3.5 mph - N/A   Clear
2:35 AM 73.6 °F 66.4 °F 78% 29.82 in 10.0 mi Calm Calm - N/A   Scattered Clouds
2:55 AM 73.8 °F 67.1 °F 80% 29.82 in 10.0 mi ESE 6.9 mph - N/A   Scattered Clouds
3:15 AM 73.4 °F 67.3 °F 81% 29.81 in 10.0 mi East 3.5 mph - N/A   Clear
3:35 AM 73.0 °F 67.1 °F 82% 29.80 in 10.0 mi ESE 5.8 mph - N/A   Clear
3:55 AM 72.5 °F 67.3 °F 84% 29.78 in 10.0 mi East 6.9 mph - N/A   Clear
4:15 AM 72.9 °F 68.0 °F 85% 29.79 in 10.0 mi East 5.8 mph - N/A   Scattered Clouds
4:35 AM 73.4 °F 68.5 °F 85% 29.80 in 10.0 mi East 5.8 mph - N/A   Mostly Cloudy
4:55 AM 73.6 °F 68.9 °F 85% 29.81 in 10.0 mi East 4.6 mph - N/A   Overcast
5:15 AM 74.5 °F 69.1 °F 83% 29.82 in 10.0 mi SE 3.5 mph - N/A   Overcast
5:35 AM 74.5 °F 69.3 °F 84% 29.82 in 10.0 mi East 4.6 mph - N/A   Overcast
5:55 AM 74.8 °F 69.4 °F 83% 29.81 in 10.0 mi East 3.5 mph - N/A   Overcast
6:15 AM 71.4 °F 63.1 °F 75% 29.86 in 5.0 mi WNW 13.8 mph 33.4 mph 0.08 in Rain Heavy Rain
6:35 AM 69.1 °F 63.9 °F 83% 29.87 in 10.0 mi Calm Calm - 0.10 in Rain Light Rain
6:55 AM 69.3 °F 64.2 °F 84% 29.88 in 10.0 mi NW 5.8 mph - 0.11 in Rain Rain
7:15 AM 68.5 °F 64.6 °F 87% 29.90 in 10.0 mi Calm Calm - 0.01 in Rain Light Rain
7:35 AM 68.2 °F 64.0 °F 87% 29.91 in 10.0 mi ENE 5.8 mph - 0.02 in Rain Light Rain
7:55 AM 67.8 °F 64.0 °F 88% 29.89 in 10.0 mi ENE 11.5 mph - 0.03 in Rain Light Rain
8:15 AM 67.6 °F 63.7 °F 87% 29.90 in 10.0 mi East 10.4 mph - 0.02 in Rain Light Rain
8:35 AM 67.5 °F 63.9 °F 88% 29.90 in 10.0 mi East 15.0 mph - 0.04 in Rain Rain
9:15 AM 67.3 °F 64.2 °F 90% 29.90 in 10.0 mi South 8.1 mph - 0.02 in Rain Light Rain
9:35 AM 67.1 °F 63.9 °F 89% 29.80 in 10.0 mi ESE 15.0 mph 21.9 mph 0.05 in Rain Light Rain
9:55 AM 69.3 °F 63.9 °F 83% 29.75 in 10.0 mi East 4.6 mph - 0.05 in   Scattered Clouds
10:15 AM 71.6 °F 65.1 °F 80% 29.87 in 10.0 mi West 12.7 mph 17.3 mph N/A   Clear
10:35 AM 70.7 °F 64.2 °F 80% 29.89 in 10.0 mi WNW 6.9 mph - N/A   Mostly Cloudy
10:55 AM 70.3 °F 64.6 °F 82% 29.89 in 10.0 mi NW 5.8 mph - N/A Rain Light Rain
11:15 AM 70.2 °F 65.1 °F 84% 29.91 in 10.0 mi West 6.9 mph - N/A   Light Drizzle
11:35 AM 70.9 °F 64.4 °F 80% 29.92 in 10.0 mi Calm Calm - N/A   Clear
11:55 AM 71.6 °F 64.4 °F 78% 29.92 in 10.0 mi Calm Calm - N/A   Scattered Clouds
12:15 PM 72.5 °F 63.5 °F 73% 29.93 in 10.0 mi Calm Calm - N/A   Scattered Clouds
12:35 PM 73.2 °F 64.2 °F 73% 29.93 in 10.0 mi South 5.8 mph - N/A   Scattered Clouds
1:15 PM 75.7 °F 65.3 °F 70% 29.91 in 10.0 mi SE 6.9 mph - N/A   Scattered Clouds
1:35 PM 76.3 °F 65.1 °F 68% 29.90 in 10.0 mi SE 4.6 mph - N/A   Scattered Clouds
1:55 PM 77.0 °F 65.5 °F 67% 29.90 in 10.0 mi SE 9.2 mph - N/A   Scattered Clouds
2:35 PM 77.7 °F 65.7 °F 66% 29.91 in 10.0 mi East 4.6 mph - N/A   Mostly Cloudy
2:55 PM 78.8 °F 65.5 °F 64% 29.91 in 10.0 mi SE 5.8 mph - N/A   Mostly Cloudy
3:35 PM 79.0 °F 65.1 °F 62% 29.92 in 10.0 mi ESE 6.9 mph - N/A   Mostly Cloudy
3:55 PM 78.1 °F 63.9 °F 61% 29.92 in 10.0 mi East 6.9 mph - N/A   Overcast
4:15 PM 78.8 °F 65.7 °F 64% 29.92 in 10.0 mi East 6.9 mph - N/A   Overcast
4:35 PM 79.5 °F 65.8 °F 63% 29.92 in 10.0 mi East 6.9 mph - N/A   Scattered Clouds
4:55 PM 78.3 °F 64.6 °F 63% 29.91 in 10.0 mi ENE 6.9 mph - N/A   Scattered Clouds
5:15 PM 79.2 °F 65.7 °F 63% 29.91 in 10.0 mi East 6.9 mph - N/A   Scattered Clouds
5:30 PM 78.1 °F 65.1 °F 64% 29.92 in 10.0 mi East 9.2 mph - N/A   Mostly Cloudy
5:55 PM 77.4 °F 65.3 °F 66% 29.92 in 10.0 mi East 9.2 mph - N/A   Overcast
6:15 PM 77.0 °F 65.1 °F 67% 29.92 in 10.0 mi ENE 9.2 mph - N/A   Overcast
6:35 PM 76.6 °F 65.7 °F 69% 29.92 in 10.0 mi East 6.9 mph - N/A   Overcast
6:55 PM 76.5 °F 65.1 °F 68% 29.92 in 10.0 mi East 6.9 mph - N/A   Overcast
7:15 PM 76.1 °F 65.5 °F 70% 29.92 in 10.0 mi East 5.8 mph - N/A   Overcast
7:35 PM 75.7 °F 65.5 °F 70% 29.92 in 10.0 mi East 4.6 mph - N/A   Overcast
7:55 PM 75.6 °F 65.7 °F 71% 29.91 in 10.0 mi East 4.6 mph - N/A   Overcast
8:15 PM 75.4 °F 65.5 °F 71% 29.92 in 10.0 mi ENE 4.6 mph - N/A   Mostly Cloudy
8:35 PM 74.7 °F 65.8 °F 74% 29.92 in 10.0 mi East 6.9 mph - N/A   Scattered Clouds
9:15 PM 74.5 °F 65.8 °F 74% 29.93 in 10.0 mi East 6.9 mph - N/A   Mostly Cloudy
9:18 PM 73.4 °F 66.2 °F 78% 29.93 in 10.0 mi East 8.1 mph - N/A   Mostly Cloudy
9:35 PM 74.3 °F 65.7 °F 74% 29.94 in 10.0 mi East 9.2 mph - N/A   Overcast
9:55 PM 74.3 °F 64.9 °F 72% 29.95 in 10.0 mi East 8.1 mph - N/A   Overcast
10:15 PM 74.3 °F 64.8 °F 72% 29.94 in 10.0 mi East 10.4 mph 19.6 mph N/A   Overcast
10:35 PM 72.7 °F 65.8 °F 79% 29.93 in 10.0 mi East 10.4 mph - 0.01 in Rain Light Rain
10:55 PM 71.4 °F 67.1 °F 86% 29.94 in 10.0 mi ESE 10.4 mph - 0.02 in   Overcast
11:15 PM 71.6 °F 65.8 °F 82% 29.96 in 5.0 mi East 11.5 mph - 0.10 in Rain Heavy Rain
11:35 PM 70.7 °F 66.2 °F 86% 29.97 in 10.0 mi SSE 3.5 mph - 0.17 in Rain Light Rain
11:55 PM 70.7 °F 66.2 °F 86% 29.99 in 10.0 mi NE 3.5 mph - 0.18 in Rain Light Rain